STARLINK-11289, 60991

Orbit data source: Space-Track

STARLINK-11289, 60991 is a payload satellite owned by SpaceX/Seattle (US) in LEO that was launched on Thu, 05 Sep 2024 UTC via an FALCON 9 launch vehicle from the Air Force Eastern Test Range (AFETR). Payload-class satellites include a variety of spacecraft equipped with specific instruments for various scientific and technological missions. These include communications satellites like Starlink; space stations such as the ISS; scientific satellites like the Hubble; Earth observation satellites from companies like Planet Labs, Umbra, and HawkEye 360; GPS; miniature CubeSats for education and research; and military/defense satellites.

Loading next visibility...
Identifier
60991, 2024-158B
Orbit
LEO
Last TLE update
1 day ago
Origin
Manufacturer
SpaceX/Seattle
Mission
Operational Commercial Communications
Bus & Motor
STARLINK V2M, Unknown motor
Mass
730 kg wet, ~700 kg dry
Launch date (UTC)
2024-09-05 (10 months ago)
Launch vehicle
FALCON 9
Launch site
Air Force Eastern Test Range (AFETR)
Object type
Payload
Rocket body
Debris
Shape & HBR
Box + 2 Pan, 29 m
Radar Cross Section
36.964 m², Large (>1 m²)

Expand to show TLE details & history

TLE from 1 day ago
0 STARLINK-11289
1 60991U 24158B   25185.92773856 -.00000802  00000-0 -17612-5 0  9997
2 60991  53.1592  62.4376 0000909  27.4275 332.6791 15.69708311 48649
Epoch: 2025-07-04T22:15Z
TLE epoch observation values (Epoch: 2025-07-04T22:15:56.611Z)
Latitude
-0.00001°
Longitude
165.27861°
Altitude
360.102 km
Speed
7.695 km/s
True Right ascension
04h 09m 45s
True Declination
0° 00' 00"
Sunlit
Object was in daylight at epoch
Visualization orbit readout
Latitude
-53.21754°
Longitude
65.55218°
Altitude
378.559 km
Speed
7.682 km/s
Apparent Right ascension
21h 55m 13s
Apparent Declination
-46° 42' 34"
Sunlit
Object is in full shadow
Visualization observer readout
Local Sidereal Time
10:15:22
Azimuth
153.344° SSE
Elevation
-82.284°
Doppler factor
1
Orbital elements
Apogee altitude
360.605 km
Perigee altitude
359.38 km
Semi-major axis
6,738.129 km
Eccentricity
0.00009
Inclination
53.1592°
RAAN
62.4376°
Arg. of periapsis
27.4275°
True anomaly
Unknown
Mean anomaly
332.6791°
Eccentric anomaly
Unknown
Mean motion
3.92405 °/min
Orbital period
91.74 mins
BSTAR
-0.0000017612
Loading maneuver chart data...
Loading SW <> Apogee altitude chart data...
Loading historical data...
Loading historical data...
Loading historical data...
Loading historical data...
Loading historical data...
Loading historical data...
Loading historical data...

STARLINK-11289 Visibility forecast

Observer location: undefined°, undefined°

Span
Click to sort rows by Start time (UTC) header in descending order
Start Az.
Max El. time (UTC)
Max El. Az.
Max El.
End time (UTC)
End Az.
5 mins2025-07-06 00:43:12.239Z325.564° NNW2025-07-06 00:45:12.239Z10.707° NNE31.203°2025-07-06 00:48:12.239Z105.967° ESE
|